Location: Unspecified
(49.9820°N, 20.4363°E)
Time: 04:34:06
(UTC+02:00)

Vanguard 3 - Pass Details

Date: 17 May 2026
Orbit: 507 x 3204 km, 33.3° (Epoch: 6 June)

Event Time Altitude Azimuth Distance (km) Brightness Sun altitude
Rises 20:35:59 0° 274° (W) 6,914 13.0 -2.9°
Reaches altitude 10° 20:45:19 10° 250° (WSW) 5,369 11.8 -4.1°
Maximum altitude 20:49:57 12° 232° (SW) 4,841 11.3 -4.7°
Drops below altitude 10° 20:54:04 10° 214° (SSW) 4,634 11.0 -5.2°
Sets 21:00:29 0° 186° (S) 4,955 10.8 -6.0°
